Regional Weather Roundup
Issued by NWS San Angelo, TX

Home | Current Version | Previous Version | Text Only | Print | Product List | Glossary On
Versions: 1 2 3 4 5 6 7 8 9 10 11 12 13 14 15 16 17 18 19 20 21 22 23 24 25 26 27 28 29 30 31 32 33 34 35 36 37 38 39 40 41 42 43 44 45 46 47 48 49 50
000
ASUS44 KSJT 290002
RWRSJT
WEST CENTRAL TEXAS REGIONAL WEATHER ROUNDUP
NATIONAL WEATHER SERVICE SAN ANGELO TX
700 PM CDT TUE MAR 28 2017

NOTE: "FAIR" INDICATES FEW OR NO CLOUDS BELOW 12,000 FEET WITH NO
SIGNIFICANT WEATHER AND/OR OBSTRUCTIONS TO VISIBILITY.

TXZ049-054-064>066-071>073-076>078-098-099-113-114-127-128-139-140-
154-155-168>170-290100
...LOCATIONS ACROSS WEST CENTRAL TEXAS...

CITY           SKY/WX    TMP DP  RH WIND       PRES   REMARKS
SAN ANGELO     MOSUNNY   77  61  57 SE26G37   29.56F
ABILENE        PTSUNNY   75  63  66 SE29G43   29.55F
DYESS AFB      CLOUDY    75  65  70 SW26G37   29.54F
JUNCTION       CLOUDY    78  64  61 SE12      29.64R
SWEETWATER     CLOUDY    74  63  69 SE21G26   29.59R
BROWNWOOD      NOT AVBL
COLEMAN        NOT AVBL
SONORA         PTSUNNY   73  64  73 E7G21     29.62F
OZONA            N/A     73  59  60 MISG      29.60R
BRADY          NOT AVBL
$$

TEXAS PANHANDLE/OKLAHOMA PANHANDLE

CITY           SKY/WX    TMP DP  RH WIND       PRES   REMARKS
AMARILLO       CLOUDY    52  49  89 NE16      29.70F
BORGER         CLOUDY    49  48  97 NE12      29.73F
CANADIAN       CLOUDY    49  48  96 E23G33    29.72F
DALHART        CLOUDY    47  45  93 N14       29.79R
DUMAS          FOG       45  44  97 NE14      29.75S VSB 3/4 WCI  39
GUYMON         NOT AVBL
HEREFORD       MOCLDY    58  54  86 NE20G28   29.67F
PAMPA          CLOUDY    48  47  95 NE16      29.72F
PERRYTON       CLOUDY    47  46  94 NE20      29.74F WCI  40
$$

SOUTHERN PANHANDLE/SOUTH PLAINS/ROLLING PLAINS

CITY           SKY/WX    TMP DP  RH WIND       PRES   REMARKS
LUBBOCK        MOSUNNY   65  51  60 NE12      29.58F
SNYDER         MOSUNNY   64  58  81 SE9       29.55R
CHILDRESS      TSTM      57  55  93 N31G40    29.61R FOG
SEMINOLE       LGT RAIN  63  44  50 NW17G25   29.69R
$$

PERMIAN BASIN

CITY           SKY/WX    TMP DP  RH WIND       PRES   REMARKS
MIDLAND        CLOUDY    60  47  61 NW20G33   29.54R
ODESSA         LGT RAIN  64  48  56 MISG      29.60R
WINK           CLOUDY    64  36  35 W32G46    29.68R
$$

FAR WEST/SOUTHWEST MOUNTAINS/TRANS PECOS

CITY           SKY/WX    TMP DP  RH WIND       PRES   REMARKS
ALPINE         MOCLDY    63  30  29 W29G39    29.76R
DRYDEN           N/A     77  63  61 E20G26    29.53R
EL PASO        MOSUNNY   62  25  24 SW13G24   29.80S
FORT STOCKTON  CLOUDY    68  33  27 NW35G46   29.64R HAZE
GUADALUPE PASS CLOUDY    52  26  36 W45G60    29.73F
MARFA          MOSUNNY   59  27  29 W33G41    29.78R
PECOS          CLOUDY    65  35  32 CALM      29.70S
$$

DALLAS/FORT WORTH METROPLEX

CITY           SKY/WX    TMP DP  RH WIND       PRES   REMARKS
DFW AIRPORT    MOCLDY    81  64  56 SE18      29.64F
FTW MEACHAM    CLOUDY    81  61  50 SE21G29   29.63F
DAL-EXECUTIVE  MOCLDY    80  63  55 SE16G23   29.67F
GRAND PRAIRIE  CLEAR     81  61  50 SE14G21   29.68F
ADDISON        PTCLDY    81  63  54 SE13G25   29.68F
MESQUITE       PTCLDY    81  63  54 SE10      29.69F
LANCASTER      MOCLDY    79  64  59 SE13G18   29.69S
$$

NORTH CENTRAL TEXAS

CITY           SKY/WX    TMP DP  RH WIND       PRES   REMARKS
SHRMAN/DENISON CLOUDY    74  64  69 E14       29.71F
GAINESVILLE    CLOUDY    74  63  69 SE15      29.69F
BRIDGEPORT     CLOUDY    76  64  64 SE9G16    29.65F
DENTON         CLOUDY    78  65  63 SE15G24   29.65F
WAXAHACHIE     CLOUDY    79  64  59 SE15G22   29.69S
GRANBURY       CLOUDY    80  64  58 SE16G29   29.64F
$$

WESTERN NORTH TEXAS

CITY           SKY/WX    TMP DP  RH WIND       PRES   REMARKS
WICHITA FALLS  CLOUDY    70  63  78 E13       29.62F
VERNON         CLOUDY    64  57  77 SW17G35   29.72R THUNDER VSB 3/4
BRECKENRIDGE   NOT AVBL
COMANCHE       CLOUDY    78  63  58 S22G37    29.62S
$$

CENTRAL AND SOUTH CENTRAL TEXAS

CITY           SKY/WX    TMP DP  RH WIND       PRES   REMARKS
AUSTIN/BERGSTM PTCLDY    82  57  42 SE26G37   29.66F
WACO           PTCLDY    80  62  54 SE22G30   29.67S
HILLSBORO      PTCLDY    79  64  60 SE18      29.68S
TEMPLE         MOCLDY    79  62  56 SE21G28   29.68S
KILLEEN-GRAY   CLOUDY    77  59  53 SE15      29.67S
FORT HOOD      CLOUDY    80  57  45 S16G25    29.64F
GEORGETOWN     PTCLDY    81  55  41 SE10G21   29.67S
LAGO VISTA     FAIR      80  57  46 SE13G24   29.69S
SAN MARCOS     CLEAR     79  55  44 SE24G33   29.68S
NEW BRAUNFELS  CLOUDY    81  57  43 SE25G31   29.65S
RANDOLPH AFB   CLOUDY    78  60  53 SE18      29.66S
SAN ANTONIO    PTSUNNY   79  59  50 SE25G32   29.65F
STINSON        PTSUNNY   80  60  50 SE17G23   29.62F
PLEASANTON     NOT AVBL
LA GRANGE      CLEAR     80  66  61 SE16G26   29.69S
GIDDINGS       CLEAR     79  61  53 S17G29    29.71S
$$

EAST TEXAS

CITY           SKY/WX    TMP DP  RH WIND       PRES   REMARKS
PARIS          PTCLDY    73  64  73 E8        29.77S
CLARKSVILLE    NOT AVBL
TYLER          CLEAR     80  62  54 SE16G25   29.73F
LONGVIEW       PTCLDY    81  63  54 SE17G25   29.74F
PALESTINE      CLEAR     80  61  51 SE13G23   29.74S
NACOGDOCHES    CLEAR     81  57  44 S14G24    29.77R
$$

TEXAS HILL COUNTRY AND EDWARDS PLATEAU

CITY           SKY/WX    TMP DP  RH WIND       PRES   REMARKS
LLANO          NOT AVBL
HORSESHOE BAY  CLOUDY    80  55  41 S10G22    29.67S
KERRVILLE      CLOUDY    79  62  57 SE21G26   29.66F
FREDERICKSBRG  NOT AVBL
ROCKSPRINGS    NOT AVBL
HONDO          PTSUNNY   82  59  45 SE18G28   29.62F
UVALDE         CLEAR     82  66  59 E16G23    29.57F
DEL RIO        MOSUNNY   83  65  54 E15G26    29.48F
$$

SOUTHEAST TEXAS

CITY           SKY/WX    TMP DP  RH WIND       PRES   REMARKS
COLLEGE STN    CLEAR     80  64  58 SE21G31   29.72R
CALDWELL       NOT AVBL
CROCKETT       NOT AVBL
BRENHAM        PTCLDY    80  65  60 SE14G24   29.74R
HUNTSVILLE     CLEAR     79  61  53 SE13G24   29.76S
CONROE         CLEAR     76  65  68 SE20G28   29.78S
HOUSTON BUSH   MOCLDY    77  68  73 SE18G31   29.78R
HOUSTON HOBBY  CLOUDY    76  69  79 SE13G26   29.78R
PERLAND        CLOUDY    79  70  74 SE18G28   29.79S
WHARTON        NOT AVBL
$$

THE UPPER TEXAS COAST

CITY           SKY/WX    TMP DP  RH WIND       PRES   REMARKS
ORANGE         CLOUDY    75  69  80 SE13G18   29.86F
PORT ARTHUR    CLOUDY    75  68  78 SE17G25   29.82F
GALVESTON      CLOUDY    76  72  87 SE18G28   29.80R
ANGLETON       CLOUDY    76  71  85 SE13G24   29.78R
BAY CITY       CLOUDY    77  72  83 SE16      29.75S
$$

TEXAS COASTAL BEND, RIO GRANDE PLAINS DEEP SOUTH TEXAS

CITY           SKY/WX    TMP DP  RH WIND       PRES   REMARKS
VICTORIA       CLOUDY    79  69  71 SE22G32   29.71S
BEEVILLE       MOCLDY    78  70  76 SE18G29   29.65F
ROCKPORT       NOT AVBL
PORT ARANSAS   CLOUDY    74  72  91 SE16G23   29.67F
PORT LAVACA    CLOUDY    77  73  87 SE17G26   29.72R
CORPUS CHRISTI MOCLDY    78  71  79 SE29G35   29.65F
KINGSVILLE NAS MOCLDY    79  72  79 SE18G31   29.62F
COTULLA        SUNNY     86  64  47 SE18G32   29.56S
LAREDO         SUNNY     88  66  48 SE26G33   29.53S
BROWNSVILLE    MOCLDY    79  71  76 SE17G26   29.66R
PORT ISABEL    MOCLDY    81  72  74 SE23G30   29.65S
HEBBRONVILLE   NOT AVBL
MCALLEN        PTCLDY    85  68  56 SE28G37   29.59F
WESLACO        PTCLDY    82  68  62 S17G26    29.62S
FALFURRIAS     CLOUDY    84  67  57 SE14G30   29.59F
EDINBURG       CLOUDY    84  67  56 SE22      29.60F
$$



USA.gov is the U.S. government's official web portal to all federal, state and local government web resources and services.